AAL2514 KJFK-KMIA

Flight info

Callsign AAL2514
Flight time N/A
Altitude 3400
Route DCT WAVEY DCT EMJAY Q167 KALDA Q101 SKARP Y313 HOAGG BNFSH3
Aircraft B738/M-V/N

Departure

Time 2026-05-08 23:54
Airport John F. Kennedy International Airport (KJFK)

Arrival

Time N/A
Airport Miami International Airport (KMIA)
Time Latitude Longitude Altitude Speed Heading
2026-05-08 23:19 40.65004 -73.79406 17 ft 0 kts 150°
2026-05-08 23:35 40.65023 -73.79418 20 ft 4 kts 164°
2026-05-08 23:35 40.65049 -73.79422 19 ft 3 kts 192°
2026-05-08 23:36 40.65072 -73.79408 19 ft 4 kts 224°
2026-05-08 23:36 40.65082 -73.79393 17 ft 0 kts 240°
2026-05-08 23:41 40.65067 -73.79428 17 ft 7 kts 240°
2026-05-08 23:41 40.65044 -73.79487 17 ft 7 kts 252°
2026-05-08 23:42 40.65041 -73.79554 17 ft 8 kts 271°
2026-05-08 23:42 40.65035 -73.79650 19 ft 14 kts 245°
2026-05-08 23:42 40.64928 -73.79702 19 ft 21 kts 180°
2026-05-08 23:42 40.64759 -73.79666 17 ft 28 kts 149°
2026-05-08 23:43 40.64601 -73.79529 19 ft 27 kts 154°
2026-05-08 23:43 40.64426 -73.79494 21 ft 25 kts 175°
2026-05-08 23:43 40.64259 -73.79500 19 ft 23 kts 182°
2026-05-08 23:43 40.64102 -73.79494 20 ft 22 kts 161°
2026-05-08 23:44 40.64002 -73.79347 20 ft 22 kts 120°
2026-05-08 23:44 40.63926 -73.79178 21 ft 21 kts 121°
2026-05-08 23:44 40.63852 -73.79014 20 ft 21 kts 120°
2026-05-08 23:44 40.63780 -73.78854 20 ft 20 kts 120°
2026-05-08 23:45 40.63710 -73.78701 20 ft 20 kts 120°
2026-05-08 23:45 40.63636 -73.78537 20 ft 22 kts 123°
2026-05-08 23:45 40.63555 -73.78359 20 ft 24 kts 120°
2026-05-08 23:45 40.63468 -73.78168 20 ft 24 kts 121°
2026-05-08 23:46 40.63387 -73.77983 20 ft 23 kts 119°
2026-05-08 23:46 40.63325 -73.77843 21 ft 1 kts 121°
2026-05-08 23:46 40.63323 -73.77838 21 ft 1 kts 121°
2026-05-08 23:46 40.63322 -73.77835 21 ft 0 kts 121°
2026-05-08 23:47 40.63308 -73.77804 22 ft 11 kts 121°
2026-05-08 23:47 40.63243 -73.77659 25 ft 24 kts 120°
2026-05-08 23:47 40.63157 -73.77471 21 ft 23 kts 120°
2026-05-08 23:47 40.63072 -73.77317 20 ft 17 kts 150°
2026-05-08 23:48 40.62985 -73.77331 22 ft 1 kts 210°
2026-05-08 23:48 40.62977 -73.77337 23 ft 10 kts 210°
2026-05-08 23:49 40.62915 -73.77406 24 ft 3 kts 264°
2026-05-08 23:49 40.62924 -73.77449 25 ft 8 kts 299°
2026-05-08 23:49 40.62933 -73.77471 24 ft 0 kts 299°
2026-05-08 23:53 40.62974 -73.77563 25 ft 44 kts 301°
2026-05-08 23:53 40.63278 -73.78232 20 ft 124 kts 300°
2026-05-08 23:53 40.63814 -73.79432 204 ft 172 kts 303°
2026-05-08 23:54 40.64478 -73.80885 648 ft 192 kts 302°
2026-05-08 23:54 40.65159 -73.82377 1130 ft 188 kts 298°
2026-05-08 23:54 40.65468 -73.84014 1672 ft 184 kts 269°
2026-05-08 23:55 40.64232 -73.86833 2634 ft 187 kts 216°
2026-05-08 23:55 40.63047 -73.87543 3119 ft 187 kts 206°
2026-05-08 23:55 40.61840 -73.88141 3604 ft 184 kts 203°
2026-05-08 23:55 40.60642 -73.88654 4136 ft 178 kts 202°
2026-05-08 23:56 40.59438 -73.89021 4620 ft 178 kts 191°
2026-05-08 23:56 40.58190 -73.88833 5043 ft 186 kts 167°
2026-05-08 23:56 40.56974 -73.88159 5356 ft 194 kts 163°
2026-05-08 23:56 40.55712 -73.87420 5572 ft 203 kts 163°
2026-05-08 23:57 40.54364 -73.86912 5813 ft 203 kts 173°
2026-05-08 23:57 40.53036 -73.86226 6177 ft 208 kts 160°
2026-05-08 23:57 40.51826 -73.85120 6468 ft 218 kts 146°
2026-05-08 23:57 40.50716 -73.83582 6405 ft 246 kts 133°
2026-05-08 23:58 40.49794 -73.81643 6598 ft 256 kts 120°
2026-05-08 23:58 40.49144 -73.79429 6946 ft 263 kts 109°
2026-05-08 23:58 40.48515 -73.77207 7440 ft 255 kts 131°
2026-05-08 23:58 40.47219 -73.75807 7839 ft 238 kts 163°
2026-05-08 23:59 40.45725 -73.74856 8293 ft 237 kts 160°
2026-05-08 23:59 40.44316 -73.73744 8793 ft 236 kts 154°
2026-05-08 23:59 40.43007 -73.72453 9293 ft 234 kts 148°
2026-05-08 23:59 40.41795 -73.71034 9661 ft 238 kts 143°
2026-05-09 00:00 40.40570 -73.69416 9650 ft 262 kts 139°
2026-05-09 00:00 40.39267 -73.67514 9752 ft 298 kts 136°
2026-05-09 00:00 40.37910 -73.65369 9786 ft 315 kts 133°
2026-05-09 00:00 40.36561 -73.63088 9890 ft 316 kts 131°
2026-05-09 00:01 40.35249 -73.60775 10239 ft 317 kts 130°
2026-05-09 00:01 40.33928 -73.58404 10551 ft 324 kts 130°
2026-05-09 00:01 40.32593 -73.55981 10874 ft 330 kts 129°
2026-05-09 00:01 40.31226 -73.53493 11418 ft 344 kts 129°
2026-05-09 00:02 40.29802 -73.50896 11946 ft 358 kts 128°
2026-05-09 00:02 40.28316 -73.48182 12489 ft 372 kts 128°
2026-05-09 00:02 40.26802 -73.45419 13029 ft 384 kts 127°
2026-05-09 00:02 40.25216 -73.42530 13584 ft 397 kts 127°
2026-05-09 00:03 40.23467 -73.39679 14089 ft 407 kts 136°
2026-05-09 00:03 40.21333 -73.37210 14582 ft 412 kts 148°
2026-05-09 00:03 40.18955 -73.35056 15096 ft 421 kts 150°
2026-05-09 00:03 40.16516 -73.32874 15606 ft 429 kts 149°
2026-05-09 00:04 40.14006 -73.30777 16083 ft 424 kts 160°
2026-05-09 00:04 40.11241 -73.29701 16588 ft 408 kts 180°
2026-05-09 00:04 40.08470 -73.29783 17116 ft 393 kts 198°
2026-05-09 00:04 40.05881 -73.30758 17658 ft 382 kts 211°
2026-05-09 00:05 40.03622 -73.32459 18196 ft 370 kts 225°
2026-05-09 00:05 40.01649 -73.34596 18682 ft 368 kts 228°
2026-05-09 00:05 39.99727 -73.36793 19162 ft 368 kts 229°
2026-05-09 00:05 39.97808 -73.39001 19636 ft 368 kts 229°
2026-05-09 00:06 39.95880 -73.41202 20128 ft 369 kts 229°
2026-05-09 00:06 39.93935 -73.43400 20630 ft 370 kts 229°
2026-05-09 00:06 39.91974 -73.45599 21136 ft 373 kts 229°
2026-05-09 00:06 39.90015 -73.47783 21666 ft 377 kts 229°
2026-05-09 00:07 39.88014 -73.50025 22021 ft 383 kts 229°
2026-05-09 00:07 39.85974 -73.52299 21990 ft 387 kts 229°
2026-05-09 00:07 39.83926 -73.54565 21985 ft 384 kts 229°
2026-05-09 00:07 39.81898 -73.56807 21983 ft 381 kts 229°
2026-05-09 00:08 39.79884 -73.59042 21993 ft 382 kts 229°
2026-05-09 00:08 39.77862 -73.61288 21995 ft 382 kts 229°
2026-05-09 00:08 39.75836 -73.63538 21993 ft 383 kts 229°
2026-05-09 00:08 39.73809 -73.65784 21989 ft 383 kts 229°
2026-05-09 00:09 39.71785 -73.68024 22114 ft 379 kts 229°
2026-05-09 00:09 39.69810 -73.70204 22685 ft 377 kts 229°
2026-05-09 00:09 39.67806 -73.72422 23220 ft 380 kts 229°
2026-05-09 00:09 39.65768 -73.74680 23743 ft 382 kts 229°
2026-05-09 00:10 39.63767 -73.76894 24194 ft 383 kts 230°
2026-05-09 00:10 39.61735 -73.79137 24662 ft 384 kts 230°
2026-05-09 00:10 39.59695 -73.81387 25133 ft 385 kts 230°
2026-05-09 00:10 39.57656 -73.83633 25615 ft 385 kts 230°
2026-05-09 00:11 39.55615 -73.85878 26103 ft 385 kts 230°
2026-05-09 00:11 39.53576 -73.88121 26594 ft 384 kts 230°
2026-05-09 00:11 39.51535 -73.90362 27098 ft 383 kts 230°
2026-05-09 00:11 39.49503 -73.92594 27613 ft 382 kts 230°
2026-05-09 00:12 39.47477 -73.94817 28135 ft 381 kts 230°
2026-05-09 00:12 39.45465 -73.97024 28668 ft 379 kts 230°
2026-05-09 00:12 39.43457 -73.99223 29202 ft 377 kts 231°
2026-05-09 00:12 39.41461 -74.01407 29763 ft 375 kts 231°
2026-05-09 00:13 39.39480 -74.03575 30274 ft 372 kts 231°
2026-05-09 00:13 39.37509 -74.05730 30748 ft 369 kts 231°
2026-05-09 00:13 39.35550 -74.07872 31232 ft 366 kts 231°
2026-05-09 00:13 39.33613 -74.09989 31715 ft 363 kts 232°
2026-05-09 00:14 39.31691 -74.12090 32223 ft 360 kts 232°
2026-05-09 00:14 39.29812 -74.14141 32716 ft 356 kts 232°
2026-05-09 00:14 39.27928 -74.16196 33225 ft 352 kts 232°
2026-05-09 00:14 39.26063 -74.18229 33753 ft 348 kts 232°
2026-05-09 00:15 39.24214 -74.20248 33976 ft 351 kts 233°
2026-05-09 00:15 39.20413 -74.24413 33991 ft 364 kts 232°
2026-05-09 00:16 39.16483 -74.28699 34024 ft 376 kts 232°
2026-05-09 00:16 39.12426 -74.33104 34004 ft 385 kts 231°
2026-05-09 00:17 39.08314 -74.37547 34004 ft 386 kts 231°
2026-05-09 00:17 39.04231 -74.41960 33993 ft 385 kts 231°
2026-05-09 00:18 39.00125 -74.46397 33996 ft 385 kts 231°
2026-05-09 00:18 38.96397 -74.50421 33997 ft 384 kts 231°
2026-05-09 00:19 38.92340 -74.54864 33998 ft 381 kts 233°
2026-05-09 00:19 38.88451 -74.59450 34002 ft 378 kts 233°
2026-05-09 00:20 38.84581 -74.64025 34000 ft 378 kts 233°
2026-05-09 00:20 38.80721 -74.68545 33997 ft 377 kts 233°
2026-05-09 00:21 38.76839 -74.73071 34003 ft 377 kts 233°
2026-05-09 00:21 38.72885 -74.77497 34001 ft 380 kts 231°
2026-05-09 00:22 38.68769 -74.81751 34003 ft 380 kts 231°
2026-05-09 00:22 38.64657 -74.85993 34010 ft 379 kts 231°
2026-05-09 00:23 38.61257 -74.89522 34013 ft 378 kts 231°
2026-05-09 00:23 38.57176 -74.93765 34016 ft 378 kts 231°
2026-05-09 00:24 38.53089 -74.98005 34019 ft 378 kts 231°
2026-05-09 00:24 38.49133 -75.02360 34024 ft 374 kts 233°
2026-05-09 00:25 38.45138 -75.06651 34025 ft 379 kts 230°
2026-05-09 00:25 38.40913 -75.10663 34027 ft 380 kts 229°
2026-05-09 00:26 38.36664 -75.14662 34022 ft 379 kts 230°
2026-05-09 00:26 38.32430 -75.18666 34021 ft 378 kts 230°
2026-05-09 00:27 38.28212 -75.22663 34018 ft 377 kts 230°
2026-05-09 00:27 38.23997 -75.26655 34021 ft 377 kts 230°
2026-05-09 00:28 38.19794 -75.30631 34021 ft 376 kts 230°
2026-05-09 00:28 38.15627 -75.34567 34019 ft 375 kts 230°
2026-05-09 00:29 38.11446 -75.38511 34028 ft 374 kts 230°
2026-05-09 00:29 38.07269 -75.42444 34031 ft 373 kts 230°
2026-05-09 00:30 38.03070 -75.46310 34034 ft 375 kts 229°
2026-05-09 00:30 37.98748 -75.50026 34035 ft 375 kts 228°
2026-05-09 00:31 37.94467 -75.53708 34032 ft 374 kts 229°
2026-05-09 00:31 37.90179 -75.57423 34029 ft 372 kts 229°
2026-05-09 00:32 37.85598 -75.60721 34032 ft 398 kts 216°
2026-05-09 00:32 37.82873 -75.61704 34029 ft 413 kts 209°
2026-05-09 00:32 37.79963 -75.62213 34024 ft 437 kts 198°
2026-05-09 00:32 37.76852 -75.62012 34051 ft 454 kts 192°
2026-05-09 00:33 37.73703 -75.61602 34033 ft 455 kts 191°
2026-05-09 00:33 37.67496 -75.61171 34031 ft 429 kts 203°
2026-05-09 00:33 37.64608 -75.61706 34053 ft 414 kts 207°
2026-05-09 00:34 37.61773 -75.62353 34038 ft 414 kts 208°
2026-05-09 00:34 37.56112 -75.63660 34043 ft 414 kts 208°
2026-05-09 00:35 37.50473 -75.64914 34046 ft 414 kts 208°
2026-05-09 00:35 37.44779 -75.66148 34044 ft 414 kts 208°
2026-05-09 00:36 37.39090 -75.67372 34050 ft 414 kts 208°
2026-05-09 00:36 37.33414 -75.68590 34052 ft 414 kts 208°
2026-05-09 00:37 37.27738 -75.69808 34055 ft 414 kts 208°
2026-05-09 00:37 37.22062 -75.71024 34058 ft 414 kts 208°
2026-05-09 00:38 37.16391 -75.72238 34061 ft 414 kts 208°
2026-05-09 00:38 37.10749 -75.73444 34067 ft 414 kts 208°
2026-05-09 00:39 37.05287 -75.75081 34068 ft 389 kts 218°
2026-05-09 00:39 37.02878 -75.76445 34061 ft 370 kts 226°
2026-05-09 00:39 37.00642 -75.78024 34060 ft 370 kts 226°
2026-05-09 00:40 36.96152 -75.81179 34050 ft 370 kts 226°
2026-05-09 00:40 36.91652 -75.84315 34044 ft 370 kts 226°
2026-05-09 00:41 36.84884 -75.89006 34037 ft 370 kts 226°
2026-05-09 00:41 36.80379 -75.92120 34043 ft 370 kts 226°
2026-05-09 00:42 36.75873 -75.95230 34037 ft 369 kts 226°
2026-05-09 00:42 36.71404 -75.98311 34036 ft 369 kts 226°
2026-05-09 00:43 36.66908 -76.01407 34046 ft 369 kts 226°
2026-05-09 00:43 36.62418 -76.04494 34050 ft 368 kts 225°
2026-05-09 00:44 36.57931 -76.07575 34048 ft 368 kts 225°
2026-05-09 00:44 36.53441 -76.10654 34060 ft 368 kts 225°
2026-05-09 00:45 36.48959 -76.13724 34064 ft 368 kts 225°
2026-05-09 00:45 36.44475 -76.16791 34064 ft 368 kts 225°
2026-05-09 00:46 36.39987 -76.19856 34053 ft 368 kts 225°
2026-05-09 00:46 36.35500 -76.22917 34052 ft 368 kts 225°
2026-05-09 00:47 36.31005 -76.25980 34057 ft 368 kts 225°
2026-05-09 00:47 36.26512 -76.29037 34058 ft 369 kts 225°
2026-05-09 00:48 36.22008 -76.32096 34061 ft 369 kts 224°
2026-05-09 00:48 36.17499 -76.35156 34061 ft 370 kts 224°
2026-05-09 00:49 36.12979 -76.38219 34068 ft 370 kts 224°
2026-05-09 00:49 36.08454 -76.41281 34067 ft 370 kts 224°
2026-05-09 00:50 36.03960 -76.44318 34071 ft 370 kts 224°
2026-05-09 00:50 35.99438 -76.47370 34068 ft 370 kts 224°
2026-05-09 00:51 35.94918 -76.50419 34069 ft 370 kts 224°
2026-05-09 00:51 35.90393 -76.53465 34064 ft 371 kts 223°
2026-05-09 00:52 35.85795 -76.56420 34059 ft 374 kts 221°
2026-05-09 00:52 35.81112 -76.59275 34060 ft 376 kts 221°
2026-05-09 00:53 35.76424 -76.62134 34057 ft 376 kts 220°
2026-05-09 00:53 35.71732 -76.65010 34056 ft 377 kts 220°
2026-05-09 00:54 35.67028 -76.67899 34058 ft 378 kts 220°
2026-05-09 00:54 35.62313 -76.70792 34061 ft 379 kts 220°
2026-05-09 00:55 35.57578 -76.73693 34066 ft 380 kts 220°
2026-05-09 00:55 35.52866 -76.76576 34061 ft 381 kts 220°
2026-05-09 00:56 35.48114 -76.79480 34061 ft 382 kts 220°
2026-05-09 00:56 35.43358 -76.82383 34065 ft 382 kts 220°
2026-05-09 00:57 35.38591 -76.85288 34057 ft 383 kts 220°
2026-05-09 00:57 35.33816 -76.88195 34058 ft 383 kts 219°
2026-05-09 00:58 35.29040 -76.91100 34063 ft 383 kts 219°
2026-05-09 00:58 35.24285 -76.93987 34069 ft 384 kts 219°
2026-05-09 00:59 35.19523 -76.96941 34078 ft 383 kts 220°
2026-05-09 00:59 35.14779 -76.99925 34083 ft 384 kts 220°
2026-05-09 01:00 35.10019 -77.02913 34077 ft 385 kts 220°
2026-05-09 01:00 35.05253 -77.05894 34084 ft 386 kts 220°
2026-05-09 01:01 35.00474 -77.08877 34079 ft 386 kts 219°
2026-05-09 01:01 34.95689 -77.11859 34072 ft 387 kts 219°
2026-05-09 01:02 34.90894 -77.14843 34072 ft 387 kts 219°
2026-05-09 01:02 34.86081 -77.17835 34066 ft 389 kts 219°
2026-05-09 01:03 34.81253 -77.20834 34061 ft 391 kts 219°
2026-05-09 01:03 34.76391 -77.23848 34065 ft 393 kts 219°
2026-05-09 01:04 34.71501 -77.26876 34067 ft 395 kts 218°
2026-05-09 01:04 34.66578 -77.29920 34072 ft 398 kts 218°
2026-05-09 01:05 34.61652 -77.32961 34075 ft 400 kts 218°
2026-05-09 01:06 34.54172 -77.37572 34070 ft 403 kts 218°
2026-05-09 01:06 34.49978 -77.40080 34061 ft 409 kts 213°
2026-05-09 01:06 34.47260 -77.41232 34065 ft 420 kts 207°
2026-05-09 01:07 34.44354 -77.41941 34067 ft 429 kts 201°
2026-05-09 01:07 34.38428 -77.43061 34058 ft 431 kts 200°
2026-05-09 01:08 34.32505 -77.44173 34063 ft 430 kts 201°
2026-05-09 01:08 34.26587 -77.45312 34062 ft 430 kts 201°
2026-05-09 01:09 34.20676 -77.46466 34062 ft 430 kts 201°
2026-05-09 01:09 34.14795 -77.47615 34062 ft 431 kts 201°
2026-05-09 01:10 34.08875 -77.48770 34060 ft 431 kts 201°
2026-05-09 01:10 34.02955 -77.49923 34066 ft 431 kts 201°
2026-05-09 01:11 33.97026 -77.51075 34064 ft 431 kts 201°
2026-05-09 01:11 33.91087 -77.52227 34070 ft 432 kts 201°
2026-05-09 01:12 33.85158 -77.53377 34064 ft 432 kts 201°
2026-05-09 01:12 33.79210 -77.54527 34064 ft 432 kts 201°
2026-05-09 01:13 33.73298 -77.55670 34063 ft 433 kts 201°
2026-05-09 01:13 33.67347 -77.56818 34068 ft 433 kts 201°
2026-05-09 01:14 33.61387 -77.57967 34066 ft 433 kts 201°
2026-05-09 01:14 33.55519 -77.59386 34070 ft 423 kts 207°
2026-05-09 01:15 33.49881 -77.61380 34061 ft 422 kts 208°
2026-05-09 01:15 33.44293 -77.63403 34064 ft 422 kts 208°
2026-05-09 01:16 33.38655 -77.65403 34064 ft 423 kts 207°
2026-05-09 01:16 33.33002 -77.67383 34064 ft 423 kts 207°
2026-05-09 01:17 33.24517 -77.70339 34068 ft 423 kts 207°
2026-05-09 01:17 33.18859 -77.72307 34062 ft 423 kts 207°
2026-05-09 01:18 33.13204 -77.74272 34068 ft 423 kts 207°
2026-05-09 01:18 33.07552 -77.76234 34065 ft 422 kts 206°
2026-05-09 01:19 33.01907 -77.78190 34059 ft 422 kts 206°
2026-05-09 01:19 32.96265 -77.80143 34058 ft 422 kts 206°
2026-05-09 01:20 32.90664 -77.82080 34055 ft 422 kts 206°
2026-05-09 01:20 32.85030 -77.84025 34057 ft 422 kts 206°
2026-05-09 01:21 32.79386 -77.85971 34060 ft 422 kts 206°
2026-05-09 01:21 32.73722 -77.87922 34062 ft 423 kts 206°
2026-05-09 01:22 32.68059 -77.89870 34058 ft 424 kts 206°
2026-05-09 01:22 32.62393 -77.91761 34058 ft 426 kts 205°
2026-05-09 01:23 32.56662 -77.93606 34059 ft 427 kts 205°
2026-05-09 01:23 32.50914 -77.95454 34055 ft 428 kts 205°
2026-05-09 01:24 32.45153 -77.97313 34055 ft 429 kts 205°
2026-05-09 01:24 32.39380 -77.99177 34057 ft 430 kts 204°
2026-05-09 01:25 32.33600 -78.01043 34052 ft 431 kts 204°
2026-05-09 01:25 32.27850 -78.02896 34053 ft 431 kts 204°
2026-05-09 01:26 32.22054 -78.04761 34052 ft 431 kts 204°
2026-05-09 01:26 32.16257 -78.06623 34050 ft 431 kts 204°
2026-05-09 01:27 32.10467 -78.08482 34046 ft 431 kts 204°
2026-05-09 01:27 32.04680 -78.10337 34046 ft 430 kts 204°
2026-05-09 01:28 31.98904 -78.12186 34047 ft 430 kts 205°
2026-05-09 01:28 31.93130 -78.14032 34044 ft 429 kts 205°
2026-05-09 01:29 31.87367 -78.15873 34051 ft 429 kts 205°
2026-05-09 01:29 31.81637 -78.17701 34048 ft 429 kts 205°
2026-05-09 01:30 31.75876 -78.19536 34044 ft 428 kts 205°
2026-05-09 01:30 31.70111 -78.21370 34053 ft 428 kts 205°
2026-05-09 01:31 31.64362 -78.23196 34051 ft 428 kts 205°
2026-05-09 01:31 31.58613 -78.25021 34053 ft 428 kts 205°
2026-05-09 01:32 31.52869 -78.26841 34046 ft 427 kts 205°
2026-05-09 01:32 31.47126 -78.28659 34045 ft 427 kts 205°
2026-05-09 01:33 31.41453 -78.30524 34044 ft 425 kts 206°
2026-05-09 01:33 31.35772 -78.32442 34047 ft 425 kts 206°
2026-05-09 01:34 31.30092 -78.34355 34044 ft 424 kts 206°
2026-05-09 01:34 31.24418 -78.36255 34046 ft 424 kts 206°
2026-05-09 01:35 31.18746 -78.38149 34045 ft 423 kts 206°
2026-05-09 01:35 31.13077 -78.40038 34049 ft 423 kts 206°
2026-05-09 01:36 31.07414 -78.41923 34043 ft 423 kts 206°
2026-05-09 01:36 31.01754 -78.43805 34042 ft 423 kts 206°
2026-05-09 01:37 30.96092 -78.45686 34045 ft 423 kts 205°
2026-05-09 01:37 30.90467 -78.47552 34044 ft 423 kts 205°
2026-05-09 01:38 30.84788 -78.49433 34036 ft 423 kts 205°
2026-05-09 01:38 30.79118 -78.51309 34042 ft 424 kts 205°
2026-05-09 01:39 30.73433 -78.53188 34042 ft 425 kts 205°
2026-05-09 01:39 30.67739 -78.55068 34040 ft 425 kts 205°
2026-05-09 01:40 30.62079 -78.56933 34039 ft 426 kts 205°
2026-05-09 01:40 30.56371 -78.58812 34039 ft 426 kts 205°
2026-05-09 01:41 30.50662 -78.60689 34040 ft 427 kts 205°
2026-05-09 01:41 30.44945 -78.62567 34041 ft 427 kts 205°
2026-05-09 01:42 30.39221 -78.64444 34038 ft 427 kts 205°
2026-05-09 01:42 30.33495 -78.66321 34040 ft 428 kts 205°
2026-05-09 01:43 30.27758 -78.68199 34039 ft 428 kts 205°
2026-05-09 01:43 30.22014 -78.70076 34036 ft 428 kts 205°
2026-05-09 01:44 30.16311 -78.71939 34039 ft 429 kts 205°
2026-05-09 01:44 30.10560 -78.73820 34036 ft 429 kts 205°
2026-05-09 01:45 30.04809 -78.75699 34039 ft 429 kts 205°